| time (UTC) | temp F | wind direction | speed MPH | gust MPH | rain 1hr in | rain 24hr in | rain mn in | humidity % | barometer mb |
| 20260510224609 | 72 | 203 | 1.0 | 4.0 | 0.00 | 0.00 | 0.00 | 65 | 1016.2 |
| 20260510223058 | 73 | 241 | 0.0 | 4.0 | 0.00 | 0.00 | 0.00 | 65 | 1016.1 |
| 20260510221556 | 73 | 217 | 0.0 | 5.0 | 0.00 | 0.00 | 0.00 | 67 | 1016.1 |
| 20260510220101 | 73 | 244 | 0.0 | 3.0 | 0.00 | 0.00 | 0.00 | 67 | 1015.9 |
| 20260510214553 | 73 | 304 | 0.0 | 4.0 | 0.00 | 0.00 | 0.00 | 69 | 1015.7 |
| 20260510213113 | 74 | 360 | 0.0 | 3.0 | 0.00 | 0.00 | 0.00 | 68 | 1015.7 |
| 20260510211550 | 74 | 200 | 0.0 | 2.0 | 0.00 | 0.00 | 0.00 | 67 | 1015.6 |
| 20260510210050 | 74 | 191 | 1.0 | 4.0 | 0.00 | 0.00 | 0.00 | 65 | 1015.4 |
| 20260510204604 | 75 | 229 | 2.0 | 5.0 | 0.00 | 0.00 | 0.00 | 65 | 1015.2 |
| 20260510203047 | 76 | 76 | 2.0 | 5.0 | 0.00 | 0.00 | 0.00 | 63 | 1015.1 |
| 20260510201550 | 77 | 196 | 1.0 | 4.0 | 0.00 | 0.00 | 0.00 | 62 | 1015.2 |
| 20260510200050 | 76 | 153 | 2.0 | 7.0 | 0.00 | 0.00 | 0.00 | 62 | 1015.2 |
| 20260510194553 | 77 | 319 | 1.0 | 9.0 | 0.00 | 0.00 | 0.00 | 59 | 1015.4 |
| 20260510193042 | 77 | 219 | 1.0 | 4.0 | 0.00 | 0.00 | 0.00 | 63 | 1015.3 |
| 20260510191540 | 76 | 201 | 0.0 | 7.0 | 0.00 | 0.00 | 0.00 | 64 | 1015.4 |
| 20260510190054 | 75 | 209 | 1.0 | 5.0 | 0.00 | 0.00 | 0.00 | 64 | 1015.5 |
| 20260510184540 | 74 | 213 | 1.0 | 4.0 | 0.00 | 0.00 | 0.00 | 63 | 1015.6 |
| 20260510183038 | 75 | 42 | 1.0 | 4.0 | 0.00 | 0.00 | 0.00 | 60 | 1015.5 |
| 20260510181541 | 76 | 98 | 1.0 | 7.0 | 0.00 | 0.00 | 0.00 | 59 | 1015.3 |
| 20260510180036 | 77 | 119 | 2.0 | 5.0 | 0.00 | 0.00 | 0.00 | 55 | 1015.2 |
| 20260510174540 | 77 | 152 | 3.0 | 8.0 | 0.00 | 0.00 | 0.00 | 57 | 1015.3 |
| 20260510173030 | 77 | 190 | 4.0 | 10.0 | 0.00 | 0.00 | 0.00 | 57 | 1015.2 |
| 20260510171542 | 76 | 186 | 2.0 | 6.0 | 0.00 | 0.00 | 0.00 | 60 | 1015.3 |
| 20260510170028 | 74 | 33 | 3.0 | 5.0 | 0.00 | 0.00 | 0.00 | 60 | 1015.5 |
| 20260510164528 | 74 | 207 | 0.0 | 2.0 | 0.00 | 0.00 | 0.00 | 64 | 1015.6 |
| 20260510163025 | 75 | 200 | 0.0 | 6.0 | 0.00 | 0.00 | 0.00 | 59 | 1015.5 |
| 20260510161526 | 76 | 205 | 4.0 | 8.0 | 0.00 | 0.00 | 0.00 | 57 | 1015.6 |
| 20260510160029 | 74 | 124 | 1.0 | 6.0 | 0.00 | 0.00 | 0.00 | 61 | 1015.5 |
| 20260510154520 | 74 | 213 | 2.0 | 5.0 | 0.00 | 0.00 | 0.00 | 61 | 1015.5 |
| 20260510153029 | 73 | 201 | 2.0 | 10.0 | 0.00 | 0.00 | 0.00 | 61 | 1015.5 |
| 20260510151520 | 74 | 204 | 3.0 | 10.0 | 0.00 | 0.00 | 0.00 | 61 | 1015.5 |
| 20260510150013 | 72 | 230 | 2.0 | 8.0 | 0.00 | 0.00 | 0.00 | 63 | 1015.4 |
| 20260510144512 | 71 | 117 | 2.0 | 7.0 | 0.00 | 0.00 | 0.00 | 64 | 1015.3 |
| 20260510143004 | 70 | 91 | 4.0 | 9.0 | 0.00 | 0.00 | 0.00 | 67 | 1015.5 |
| 20260510141600 | 68 | 44 | 2.0 | 6.0 | 0.00 | 0.00 | 0.00 | 69 | 1015.6 |
| 20260510140055 | 67 | 100 | 1.0 | 8.0 | 0.00 | 0.00 | 0.00 | 74 | 1015.4 |
| 20260510134551 | 65 | 338 | 2.0 | 6.0 | 0.00 | 0.00 | 0.00 | 78 | 1015.5 |
| 20260510133044 | 62 | 34 | 2.0 | 4.0 | 0.00 | 0.00 | 0.00 | 90 | 1015.5 |
| 20260510131544 | 60 | 360 | 0.0 | 3.0 | 0.00 | 0.00 | 0.00 | 95 | 1015.6 |
| 20260510130038 | 59 | 360 | 0.0 | 0.0 | 0.00 | 0.00 | 0.00 | 96 | 1015.4 |
| 20260510124533 | 57 | 360 | 0.0 | 0.0 | 0.00 | 0.00 | 0.00 | 96 | 1015.5 |
| 20260510123027 | 56 | 360 | 0.0 | 0.0 | 0.00 | 0.00 | 0.00 | 96 | 1015.4 |
| 20260510121525 | 54 | 360 | 0.0 | 1.0 | 0.00 | 0.00 | 0.00 | 96 | 1015.2 |
| 20260510120020 | 51 | 360 | 0.0 | 0.0 | 0.00 | 0.00 | 0.00 | 96 | 1015.2 |
| 20260510114521 | 50 | 360 | 0.0 | 0.0 | 0.00 | 0.00 | 0.00 | 95 | 1015.0 |
| 20260510113046 | 48 | 360 | 0.0 | 0.0 | 0.00 | 0.00 | 0.00 | 95 | 1014.9 |
| 20260510111540 | 48 | 360 | 0.0 | 0.0 | 0.00 | 0.00 | 0.00 | 94 | 1014.7 |
| 20260510110046 | 48 | 360 | 0.0 | 0.0 | 0.00 | 0.00 | 0.00 | 94 | 1014.4 |
| 20260510104534 | 48 | 360 | 0.0 | 0.0 | 0.00 | 0.00 | 0.00 | 94 | 1014.3 |
| 20260510103034 | 48 | 360 | 0.0 | 0.0 | 0.00 | 0.00 | 0.00 | 94 | 1014.3 |
| 20260510101531 | 48 | 360 | 0.0 | 0.0 | 0.00 | 0.00 | 0.00 | 94 | 1014.0 |
| 20260510100034 | 48 | 360 | 0.0 | 0.0 | 0.00 | 0.00 | 0.00 | 94 | 1014.1 |
| 20260510094535 | 48 | 360 | 0.0 | 0.0 | 0.00 | 0.00 | 0.00 | 94 | 1013.7 |
| 20260510093026 | 49 | 360 | 0.0 | 0.0 | 0.00 | 0.00 | 0.00 | 94 | 1013.5 |
| 20260510091521 | 49 | 360 | 0.0 | 0.0 | 0.00 | 0.00 | 0.00 | 94 | 1013.3 |
| 20260510090122 | 49 | 360 | 0.0 | 0.0 | 0.00 | 0.00 | 0.00 | 94 | 1013.2 |
| 20260510084607 | 49 | 360 | 0.0 | 0.0 | 0.00 | 0.00 | 0.00 | 94 | 1013.1 |
| 20260510083046 | 50 | 360 | 0.0 | 0.0 | 0.00 | 0.00 | 0.00 | 94 | 1012.9 |
| 20260510081544 | 50 | 360 | 0.0 | 0.0 | 0.00 | 0.00 | 0.00 | 94 | 1012.8 |
| 20260510080055 | 50 | 360 | 0.0 | 0.0 | 0.00 | 0.00 | 0.00 | 94 | 1012.8 |
| 20260510074541 | 50 | 360 | 0.0 | 0.0 | 0.00 | 0.00 | 0.00 | 94 | 1012.8 |
| 20260510073047 | 50 | 360 | 0.0 | 0.0 | 0.00 | 0.00 | 0.00 | 93 | 1012.6 |
| 20260510071536 | 50 | 360 | 0.0 | 0.0 | 0.00 | 0.00 | 0.00 | 93 | 1012.5 |
| 20260510070045 | 50 | 360 | 0.0 | 0.0 | 0.00 | 0.00 | 0.00 | 93 | 1012.6 |
| 20260510064539 | 50 | 360 | 0.0 | 0.0 | 0.00 | 0.00 | 0.00 | 93 | 1012.6 |
| 20260510063036 | 51 | 360 | 0.0 | 0.0 | 0.00 | 0.00 | 0.00 | 93 | 1012.6 |
| 20260510061501 | 51 | 360 | 0.0 | 0.0 | 0.00 | 0.00 | 0.00 | 92 | 1012.7 |
| 20260510060101 | 51 | 360 | 0.0 | 0.0 | 0.00 | 0.00 | 0.00 | 92 | 1012.7 |
| 20260510054600 | 51 | 360 | 0.0 | 0.0 | 0.00 | 0.00 | 0.00 | 92 | 1012.6 |
| 20260510053059 | 51 | 360 | 0.0 | 0.0 | 0.00 | 0.00 | 0.00 | 92 | 1012.7 |
| 20260510051607 | 52 | 360 | 0.0 | 0.0 | 0.00 | 0.00 | 0.00 | 91 | 1012.8 |
| 20260510050108 | 52 | 360 | 0.0 | 0.0 | 0.00 | 0.00 | 0.00 | 91 | 1012.9 |
| 20260510044553 | 52 | 360 | 0.0 | 0.0 | 0.00 | 0.00 | 0.00 | 91 | 1012.9 |
| 20260510043053 | 52 | 360 | 0.0 | 0.0 | 0.00 | 0.00 | 0.00 | 91 | 1013.0 |
| 20260510041552 | 53 | 360 | 0.0 | 0.0 | 0.00 | 0.00 | 0.00 | 90 | 1013.0 |
| 20260510034549 | 54 | 360 | 0.0 | 0.0 | 0.00 | 0.00 | 0.00 | 90 | 1013.1 |
| 20260510033055 | 54 | 360 | 0.0 | 0.0 | 0.00 | 0.00 | 0.00 | 89 | 1013.0 |
| 20260510031549 | 54 | 360 | 0.0 | 0.0 | 0.00 | 0.00 | 0.00 | 89 | 1012.9 |
| 20260510030047 | 55 | 360 | 0.0 | 0.0 | 0.00 | 0.00 | 0.00 | 88 | 1013.0 |
| 20260510024543 | 55 | 360 | 0.0 | 0.0 | 0.00 | 0.00 | 0.00 | 88 | 1012.7 |
| 20260510023042 | 56 | 360 | 0.0 | 0.0 | 0.00 | 0.00 | 0.00 | 87 | 1012.5 |
| 20260510021629 | 57 | 360 | 0.0 | 1.0 | 0.00 | 0.00 | 0.00 | 86 | 1012.2 |
| 20260510020037 | 57 | 12 | 0.0 | 1.0 | 0.00 | 0.00 | 0.00 | 85 | 1012.0 |
| 20260510014546 | 58 | 13 | 0.0 | 1.0 | 0.00 | 0.00 | 0.00 | 84 | 1011.7 |
| 20260510013034 | 59 | 13 | 0.0 | 1.0 | 0.00 | 0.00 | 0.00 | 83 | 1011.4 |
| 20260510011532 | 60 | 11 | 0.0 | 1.0 | 0.00 | 0.00 | 0.00 | 80 | 1011.2 |
| 20260510010042 | 62 | 11 | 0.0 | 1.0 | 0.00 | 0.00 | 0.00 | 79 | 1011.2 |
| 20260510004529 | 63 | 360 | 0.0 | 1.0 | 0.00 | 0.00 | 0.00 | 77 | 1011.0 |
| 20260510003029 | 64 | 360 | 0.0 | 0.0 | 0.00 | 0.00 | 0.00 | 76 | 1010.8 |
| 20260510001530 | 65 | 360 | 0.0 | 0.0 | 0.00 | 0.00 | 0.00 | 74 | 1010.6 |
| 20260510000029 | 66 | 360 | 0.0 | 2.0 | 0.00 | 0.00 | 0.00 | 72 | 1010.4 |
| 20260509234626 | 67 | 360 | 0.0 | 2.0 | 0.00 | 0.00 | 0.00 | 69 | 1010.3 |
| 20260509233032 | 68 | 77 | 0.0 | 4.0 | 0.00 | 0.00 | 0.00 | 68 | 1010.3 |
| 20260509231523 | 68 | 297 | 1.0 | 5.0 | 0.00 | 0.00 | 0.00 | 66 | 1010.3 |